Location: Unspecified
(39.0670°S, 0.0000°E)
Time: 20:28:40
(UTC+00:00)

Envisat - Pass Details

Date: 30 June 2019
Orbit: 764 x 766 km, 98.1° (Epoch: 19 July)

Event Time Altitude Azimuth Distance (km) Brightness Sun altitude
Exits shadow 19:51:53 30° 307° (NW) 1,362 4.6 -34.9°
Drops below altitude 10° 19:54:37 10° 325° (NW) 2,310 5.8 -35.4°
Sets 19:56:58 0° 330° (NNW) 3,228 6.6 -35.9°
